[TLELIST] Archives

 

Current TLEs

April 8th 2008 PDT

HST 1 20580U 90037B 08099.23252961 .00000445 00000-0 21634-4 0 1096 2 20580 028.4683 059.4719 0003486 000.5406 359.5186 15.00362351784461 ISS (ZARYA) 1 25544U 98067A 08099.49357639 .00029283 00000-0 17834-3 0 2681 2 25544 051.6420 015.6484 0000609 013.8604 336.2464 15.77188421537529 CXO 1 25867U 99040B 08098.83333333 .00000416 00000-0 10000-3 0 1845 2 25867 063.4408 082.2800 6709079 279.8380 359.8906 00.37806001 3367 ____________________________________________________________________ These 2-Line ...Continue Reading

Current TLEs

April 7th 2008 PDT

HST 1 20580U 90037B 08096.97085403 +.00000468 +00000-0 +23422-4 0 01125 2 20580 028.4679 074.2282 0003576 335.4709 024.5707 15.00361272784124 ISS (ZARYA) 1 25544U 98067A 08098.18988795 .00021765 00000-0 13424-3 0 2621 2 25544 051.6423 022.3739 0000341 011.2918 131.7902 15.77094087537320 CXO 1 25867U 99040B 08098.83333333 .00000416 00000-0 10000-3 0 1845 2 25867 063.4408 082.2800 6709079 279.8380 359.8906 00.37806001 3367 ____________________________________________________________________ These 2-Line ...Continue Reading

Current TLEs

April 6th 2008 PDT

HST 1 20580U 90037B 08095.24133558 +.00000483 +00000-0 +24601-4 0 01193 2 20580 028.4680 085.5060 0003593 316.7696 043.2608 15.00360337783860 ISS (ZARYA) 1 25544U 98067A 08097.52893519 .00039101 00000-0 23775-3 0 2596 2 25544 051.6441 025.7898 0001252 000.6958 347.2925 15.77074246537213 CXO 1 25867U 99040B 08096.20833333 .00000495 00000-0 10000-3 0 1835 2 25867 063.4178 082.3805 6707138 279.8320 002.5981 00.37810414 3352 ____________________________________________________________________ These 2-Line ...Continue Reading

Current TLEs

April 6th 2008 PDT

PUBLIC "-//W3C//DTD XHTML 1.0 Transitional//EN" "http://www.w3.org/TR/xhtml1/DTD/xhtml1-transitional.dtd"> ____________________________________________________________________ These 2-Line Elements (TLEs) are direct from DoD/ USSTRATCOM/ US Space Command with permission. Updates are provided automatically daily. By receiving this email, you agree not to transfer any data or information received under this agreement, including the analysis of tracking data, to any other entity without the ...Continue Reading

Current TLEs

April 5th 2008 PDT

HST 1 20580U 90037B 08093.37877690 +.00000498 +00000-0 +25788-4 0 01190 2 20580 028.4681 097.6522 0003613 297.1541 062.8678 15.00359217783580 ISS (ZARYA) 1 25544U 98067A 08095.45847442 .00024808 00000-0 15318-3 0 2468 2 25544 051.6431 036.4627 0001015 006.4199 099.0735 15.76979193536897 CXO 1 25867U 99040B 08096.20833333 .00000495 00000-0 10000-3 0 1835 2 25867 063.4178 082.3805 6707138 279.8320 002.5981 00.37810414 3352 ____________________________________________________________________ These 2-Line ...Continue Reading

Current TLEs

April 4th 2008 PDT

HST 1 20580U 90037B 08094.24353647 .00000492 00000-0 25327-4 0 1067 2 20580 028.4680 092.0133 0003613 306.3680 053.6575 15.00359743783716 ISS (ZARYA) 1 25544U 98067A 08094.37863660 .00022061 00000-0 13706-3 0 2387 2 25544 051.6424 042.0335 0001091 358.2273 092.8479 15.76918613536721 CXO 1 25867U 99040B 08093.50000000 .00000459 00000-0 10000-3 0 1821 2 25867 063.3975 082.4567 6702413 279.8262 353.9680 00.37807914 3347 ____________________________________________________________________ These 2-Line ...Continue Reading

Current TLEs

April 3rd 2008 PDT

HST 1 20580U 90037B 08092.44749717 .00000502 00000-0 26060-4 0 1050 2 20580 028.4680 103.7249 0003640 287.1383 072.8805 15.00358615783446 ISS (ZARYA) 1 25544U 98067A 08093.49430794 .00027622 00000-0 17073-3 0 2319 2 25544 051.6427 046.5942 0001132 354.3801 113.1231 15.76887796536581 CXO 1 25867U 99040B 08093.50000000 .00000459 00000-0 10000-3 0 1821 2 25867 063.3975 082.4567 6702413 279.8262 353.9680 00.37807914 3347 ____________________________________________________________________ These 2-Line ...Continue Reading

Current TLEs

April 2nd 2008 PDT

HST 1 20580U 90037B 08090.45189792 +.00000486 +00000-0 +24866-4 0 01132 2 20580 028.4679 116.7380 0003628 266.7961 093.2212 15.00357096783143 ISS (ZARYA) 1 25544U 98067A 08092.47953824 .00033270 00000-0 20513-3 0 2241 2 25544 051.6428 051.8280 0000752 356.5189 106.5638 15.76839566536428 CXO 1 25867U 99040B 08090.87500000 .00000368 00000-0 10000-3 0 1811 2 25867 063.3837 082.5150 6697528 279.8405 356.6342 00.37806438 3336 ____________________________________________________________________ These 2-Line ...Continue Reading

Current TLEs

April 1st 2008 PDT

HST 1 20580U 90037B 08089.45409846 +.00000438 +00000-0 +21131-4 0 01145 2 20580 028.4679 123.2484 0003663 254.8112 105.2075 15.00356081782992 ISS (ZARYA) 1 25544U 98067A 08091.52964319 .00015048 00000-0 95426-4 0 2189 2 25544 051.6420 056.7266 0001248 339.6924 127.6619 15.76775164536277 CXO 1 25867U 99040B 08090.87500000 .00000368 00000-0 10000-3 0 1811 2 25867 063.3837 082.5150 6697528 279.8405 356.6342 00.37806438 3336 ____________________________________________________________________ These 2-Line ...Continue Reading

Current TLEs

March 31st 2008 PDT

HST 1 20580U 90037B 08090.18581840 .00000450 00000-0 22004-4 0 1034 2 20580 028.4680 118.4767 0003731 262.0630 097.9543 15.00356594783106 ISS (ZARYA) 1 25544U 98067A 08090.51450352 .00039077 00000-0 24120-3 0 2117 2 25544 051.6410 061.9599 0000534 348.2103 113.0468 15.76733677536112 CXO 1 25867U 99040B 08090.87500000 .00000368 00000-0 10000-3 0 1811 2 25867 063.3837 082.5150 6697528 279.8405 356.6342 00.37806438 3336 ____________________________________________________________________ These 2-Line ...Continue Reading
  • This mailing list is a public mailing list - anyone may join or leave, at any time.
  • This mailing list is announce-only.

International Space Station (ISS) / Hubble Space Telescope (HST) / Chandra X-Ray Observatory Orbital Data via EMAIL

Privacy Policy:

Private list